Location: Dayton
(39.7590°N, 84.1920°W)
Time: 02:14:00
(UTC-04:00)

ATLAS CENTAUR R/B - Visible Passes

Search period start: 31 October 2014 00:00
Search period end: 09 November 2014 23:00
Orbit: 251 x 9287 km, 57.4° (Epoch: 28 October)

Date Brightness Start Highest point End Pass type
(mag) Time Alt. Az. Time Alt. Az. Time Alt. Az.
31 Oct 5.4 03:54:01 35° N 03:55:58 37° N 04:21:08 10° ENE visible
31 Oct 6.2 07:10:59 10° NW 07:29:03 72° NE 08:30:29 10° SE visible
01 Nov 5.7 02:40:04 32° NNE 02:40:04 32° NNE 02:53:19 10° NE visible
01 Nov 5.9 05:55:12 15° NW 06:08:26 55° NNE 07:00:06 10° ESE visible
02 Nov 6.2 01:25:57 19° NE 01:25:57 19° NE 01:30:28 10° NE visible
02 Nov 5.6 03:41:04 28° NNW 03:47:47 42° NNE 04:24:41 10° E visible
03 Nov 5.5 02:26:44 36° N 02:27:21 36° N 02:50:48 10° ENE visible
03 Nov 6.2 05:42:33 10° NW 05:59:53 70° NE 06:59:59 10° SE visible
04 Nov 5.9 01:12:15 28° NNE 01:12:15 28° NNE 01:23:06 10° NE visible
04 Nov 5.8 04:27:19 20° NW 04:38:50 53° NNE 05:28:23 10° ESE visible
04 Nov 6.4 23:57:36 15° NE 23:57:36 15° NE 00:00:08 10° NE visible
05 Nov 5.6 03:12:38 33° NNW 03:17:45 41° NNE 03:52:14 10° E visible
05 Nov 6.3 06:30:05 10° NW 06:50:19 89° NE 07:53:51 10° SSE visible
06 Nov 5.7 01:57:47 35° NNE 01:57:47 35° NNE 02:18:28 10° ENE visible
06 Nov 6.1 05:12:47 12° NW 05:28:53 69° NE 06:27:21 10° SE visible
07 Nov 6.1 00:42:46 24° NE 00:42:46 24° NE 00:51:01 10° NE visible
07 Nov 5.8 03:57:45 26° NNW 04:07:25 51° NNE 04:54:25 10° ESE visible
07 Nov 6.6 23:27:34 11° NE 23:27:34 11° NE 23:27:59 10° NE visible
08 Nov 5.6 02:42:32 36° N 02:45:54 40° NNE 03:17:38 10° E visible
08 Nov 6.3 05:58:37 10° NW 06:17:55 87° NE 07:20:30 10° SSE visible
09 Nov 5.9 01:27:09 32° NNE 01:27:09 32° NNE 01:44:13 10° ENE visible
09 Nov 6.0 04:42:05 18° NW 04:56:03 66° NE 05:52:32 10° SE visible
